sat.trackr.live / text

‹ back to catalog

STARLINK-36107

NORAD 66979 · 2025-288W

PAYLOAD ACTIVE UNKNOWN

§ Identity

Operator
Country
US
Launch date
2025-12-08
Launch site
AFETR
Launch vehicle
Mass (kg)
RCS (m²)

Purposes: comms

External: N2YO · Heavens-Above · Gunter

§ Orbital elements

Epoch: 2026-05-24T20:53:23.289216Z

Period
94.27 min
Inclination
43.0027°
Eccentricity
0.0001610
Mean motion
15.27586500 rev/d
Perigee alt
481.9 km
Apogee alt
484.1 km
Semi-major
6,861.2 km
B*
4.1357e-4
RAAN
313.6205°
Arg perigee
276.4530°
Mean anomaly
83.6138°
Rev number
2,693

§ Raw data

STARLINK-361071 66979U 25288W   26144.87040844  .00011138  00000+0  41357-3 0  99902 66979  43.0027 313.6205 0001610 276.4530  83.6138 15.27586500 26938

JSON: /api/v1/satellites/66979 · /tle

For live sub-satellite position, see the globe view (requires WebGL).

§ Visibility from observer

Set your observer location to see the next 7 days of passes ≥ 10°. The values pass through the URL so the page stays shareable.

No JS? Fill the form by hand. The geolocation button needs JavaScript.